This demonstration page uses our WeatherBlox Daily Observations layout. Learn more.

Left ArrowRight Arrow

Hourly Observations for August 14, 2021

Temp ( °F °C ) Dew Point ( °F °C ) Humidity (%) Winds ( mph kmh ) Pressure ( in mb ) Visibility ( mi km ) Precip ( " mm )
12:53 am 00:53 Hazy 81 27.2 62 16.7 53 53 Calm 29.97 1015 5 8 0.00 0.00
1:53 am 01:53 Hazy 81 27.2 61 16.1 51 51 Calm 29.97 1015 4 6 0.00 0.00
2:53 am 02:53 Hazy 80 26.7 59 15 49 49 N 3 6 29.96 1015 4 6 0.00 0.00
3:53 am 03:53 Hazy 75 23.9 60 15.6 60 60 NW 3 6 29.96 1015 4 6 0.00 0.00
4:53 am 04:53 Hazy 75 23.9 59 15 58 58 Calm 29.96 1015 4 6 0.00 0.00
5:53 am 05:53 Hazy 73 22.8 60 15.6 64 64 Calm 29.97 1015 4 6 0.00 0.00
6:53 am 06:53 Mostly Cloudy with Haze 72 22.2 58 14.4 61 61 Calm 29.98 1015 3 5 0.00 0.00
7:53 am 07:53 Cloudy with Haze 75 23.9 58 14.4 55 55 Calm 29.99 1016 3 5 0.00 0.00
8:53 am 08:53 Cloudy with Haze 80 26.7 59 15 49 49 Calm 29.99 1016 3 5 0.00 0.00
9:53 am 09:53 Cloudy with Haze 86 30 57 13.9 37 37 VRB 3 6 29.99 1016 4 6 0.00 0.00
10:53 am 10:53 Cloudy with Haze 89 31.7 58 14.4 35 35 Calm 29.98 1015 4 6 0.00 0.00
11:53 am 11:53 Cloudy with Haze 93 33.9 56 13.3 29 29 Calm 29.96 1015 3 5 0.00 0.00
12:17 pm 12:17 Cloudy with Haze 95 35 56 13.3 27 27 Calm 29.94 1014 3 4 0.00 0.00
12:38 pm 12:38 Cloudy with Haze 97 36.1 54 12.2 24 24 W 6 9 29.93 1014 3 4 0.00 0.00
12:53 pm 12:53 Cloudy with Haze 98 36.7 55 12.8 24 24 VRB 5 7 29.94 1014 2 2 0.00 0.00
1:00 pm 13:00 Cloudy with Haze 98 36.7 54 12.2 23 23 SSW 6 9 29.92 1013 1 2 0.00 0.00
1:27 pm 13:27 Cloudy with Haze 99 37.2 54 12.2 22 22 Calm 29.92 1013 2 2 0.00 0.00
1:53 pm 13:53 Cloudy with Haze 101 38.3 54 12.2 21 21 VRB 5 7 29.93 1013 2 2 0.00 0.00
2:34 pm 14:34 Cloudy with Haze 103 39.4 53 11.7 19 19 SSE 5 7 29.90 1012 1 2 0.00 0.00
2:46 pm 14:46 Cloudy with Haze 104 40 53 11.7 18 18 S 6 9 29.88 1012 2 2 0.00 0.00
2:53 pm 14:53 Cloudy with Haze 104 40 53 11.7 18 18 VRB 3 6 29.91 1013 2 2 0.00 0.00
3:53 pm 15:53 Cloudy with Haze 106 41.1 54 12.2 18 18 VRB 3 6 29.88 1012 2 3 0.00 0.00
4:02 pm 16:02 Cloudy with Haze 106 41.1 54 12.2 18 18 Calm 29.85 1011 2 3 0.00 0.00
4:53 pm 16:53 Cloudy with Haze 105 40.6 54 12.2 18 18 SSE 5 7 29.86 1011 3 4 0.00 0.00
5:50 pm 17:50 Cloudy with Haze 106 41 55 13 19 19 S 5 7 29.82 1010 3 5 0.00 0.00
5:53 pm 17:53 Cloudy with Haze 105 40.6 56 13.3 20 20 S 5 7 29.85 1011 3 5 0.00 0.00
6:53 pm 18:53 Cloudy with Haze 104 40 56 13.3 20 20 S 6 9 29.85 1011 3 5 0.00 0.00
7:53 pm 19:53 Cloudy with Haze 97 36.1 58 14.4 27 27 Calm 29.85 1011 3 5 0.00 0.00
8:10 pm 20:10 Mostly Cloudy with Haze 97 36.1 58 14.4 27 27 Calm 29.84 1011 3 5 0.00 0.00
8:53 pm 20:53 Hazy 93 33.9 57 13.9 30 30 ESE 3 6 29.87 1012 4 6 0.00 0.00
9:08 pm 21:08 Mostly Cloudy with Haze 92 33.3 57 13.9 31 31 SSE 3 6 29.87 1011 4 6 0.00 0.00
9:32 pm 21:32 Cloudy with Haze 91 32.8 60 15.6 35 35 W 5 7 29.88 1012 5 8 0.00 0.00
9:53 pm 21:53 Cloudy with Haze 91 32.8 60 15.6 35 35 S 5 7 29.89 1012 5 8 0.00 0.00
10:53 pm 22:53 Cloudy with Haze 90 32.2 61 16.1 38 38 S 3 6 29.90 1012 7 11 0.00 0.00
11:53 pm 23:53 Cloudy with Haze 88 31.1 62 16.7 42 42 N 5 7 29.91 1013 7 11 0.00 0.00

Powered by AerisWeather